User: anonymous   Login
Location: Caltech
(34.1382°N, 118.1253°W)
Time: 08:53:29
(UTC-07:00)
Language:

GPS 2-04 Rocket1 - Orbit

View from above orbital plane
View from above orbital plane
View from above satellite
View from above satellite

Ground track
Ground track

The orbit data is extracted from the following two-line orbital elements,

1 20303U 89085B   15215.47944500  .00004767  00000-0  19259-3 0  9998
2 20303 035.6331 333.7139 0122377 270.1356 155.5539 15.17583228396391
Epoch (UTC): 03 August 2015 11:30:24
Eccentricity: 0.0122377
inclination: 35.6331°
perigee height: 429 km
apogee height: 597 km
right ascension of ascending node: 333.7139°
argument of perigee: 270.1356°
revolutions per day: 15.17583228
mean anomaly at epoch: 155.5539°
orbit number at epoch: 39639

The dashed part of the orbit path shows where the satellite is in the earth's shadow,  

DLR